Simultaneous Nadir Overpasses (SNOs) Predictions

Prediction of SNOs between FY3D and AQUA Satellite Orbit:

Table of predicted SNOs for the next 14.0 days since TLE Epoch: 10/21/2023
Index Date (FY3D) Time (FY3D) Lat,Lon (FY3D) SZA (FY3D ) Date (AQUA) Time (AQUA) Lat,Lon (AQUA) SZA (AQUA ) Distance(km) Time Diff (sec)
1 10/23/2023 02:41:27 79.02, 120.02 90.63 10/23/2023 02:42:19 79.02, 119.90 90.63 2.81 52
2 10/23/2023 03:32:07 -78.82, -71.29 89.62 10/23/2023 03:31:37 -78.82, -71.22 89.62 1.43 30
3 10/25/2023 16:26:56 -78.97, 94.00 88.54 10/25/2023 16:26:58 -78.97, 94.12 88.56 2.68 2
4 10/28/2023 05:21:43 -79.06,-100.28 87.57 10/28/2023 05:22:16 -79.05,-100.20 87.59 1.99 33
5 10/28/2023 06:12:18 78.68, 69.68 91.95 10/28/2023 06:11:31 78.68, 69.63 91.96 1.20 47
6 10/30/2023 18:16:29 -79.12, 65.62 86.65 10/30/2023 18:17:32 -79.12, 65.59 86.66 0.76 63
7 10/30/2023 19:07:08 78.89,-125.36 93.05 10/30/2023 19:06:50 78.88,-125.30 93.05 1.53 18
8 11/02/2023 08:01:55 79.03, 40.00 94.05 11/02/2023 08:02:05 79.02, 40.10 94.04 2.25 10



Historial Predications of SNOs between FY3D and AQUA
